Printer-friendly version

IAU Minor Planet Center

Minor Planet Center

MPEC 2008-E10 : COMET C/2007 W1 (BOATTINI)

The following Minor Planet Electronic Circular may be linked-to from your own Web pages, but must not otherwise be redistributed electronically.


Read MPEC 2008-E09 Read MPEC 2008-E11


M.P.E.C. 2008-E10                                Issued 2008 Mar. 1, 16:33 UT

     The Minor Planet Electronic Circulars contain information on unusual
         minor planets and routine data on comets.  They are published
   on behalf of Commission 20 of the International Astronomical Union by the
          Minor Planet Center, Smithsonian Astrophysical Observatory,
                          Cambridge, MA 02138, U.S.A.

             Prepared using the Tamkin Foundation Computer Network

                              MPC@CFA.HARVARD.EDU
          URL http://www.cfa.harvard.edu/iau/mpc.html  ISSN 1523-6714

                          COMET C/2007 W1 (BOATTINI)

Observations:
    CK07W010  C2008 02 26.57311 12 47 04.49 -12 33 40.5          16.1 N EE010467
    CK07W010  C2008 02 26.57435 12 47 04.51 -12 33 41.2          16.5 N EE010467
    CK07W010  C2008 02 26.57546 12 47 04.49 -12 33 41.8          16.5 N EE010467
    CK07W010  C2008 02 28.42200 12 46 39.97 -12 48 48.0          13.8 T EE010703
    CK07W010  C2008 02 28.42926 12 46 39.83 -12 48 51.9                 EE010703
    CK07W010  C2008 02 28.43646 12 46 39.71 -12 48 55.3                 EE010703
    CK07W010  C2008 02 28.44367 12 46 39.59 -12 48 58.5                 EE010703
    CK07W010  C2008 02 29.42236 12 46 23.50 -12 56 53.1                 EE010691
    CK07W010  C2008 02 29.44003 12 46 23.17 -12 57 01.2                 EE010691
    CK07W010  C2008 02 29.45770 12 46 22.94 -12 57 11.5                 EE010691
    CK07W010  C2008 03 01.07808 12 46 12.29 -13 02 15.1          15.3 N EE010J51
    CK07W010  C2008 03 01.08620 12 46 12.16 -13 02 19.4          15.3 N EE010J51
    CK07W010  C2008 03 01.09431 12 46 11.95 -13 02 23.0          15.3 N EE010J51

Observer details:
467 Auckland Observatory.  Observers G. W. Christie, T. Natusch.  Measurer
    G. W. Christie.  0.40-m f/10 Schmidt-Cassegrain + CCD.
691 Steward Observatory, Kitt Peak.  Observer J. V. Scotti.  0.9-m f/3
    reflector + CCD.
703 Catalina Sky Survey.  Observer A. R. Gibbs.  Measurers E. C. Beshore,
    A. Boattini, A. R. Gibbs, A. D. Grauer, R. E. Hill, R. A. Kowalski,
    S. M. Larson.  0.68-m Schmidt + CCD.
J51 Observatorio Atlante, Tenerife.  Observer J. A. Henriquez.  0.2-m f/9
    Cassegrain + CCD.

Orbital elements:
    C/2007 W1 (Boattini)
Epoch 2008 June 23.0 TT = JDT 2454640.5
T 2008 June 24.88234 TT                                 MPC
q   0.8495906            (2000.0)            P               Q
z  -0.0002036      Peri.  306.55717     +0.19732512     +0.97755073
 +/-0.0000125      Node   334.52352     -0.83561676     +0.12831130
e   1.0001730      Incl.    9.88923     -0.51264747     +0.16712507
Residuals in seconds of arc
071120 G96  0.5-  0.2-    080105 585  0.2+  0.5-    080207 467  0.4-  0.2-
071120 G96  0.4-  0.1-    080105 585  0.5+  0.6-    080208 945  0.1-  0.6-
071120 G96  0.2-  0.1-    080105 585  0.8+  0.4-    080208 945  0.8+  0.6-
071120 G96  0.5-  0.1-    080105 585  0.7+  0.5-    080208 945  1.6+  0.7-
071120 G96  0.0   0.3+    080105 B42  0.1-  0.8+    080208 945  0.5+  0.5-
071120 G96  0.6-  0.2+    080105 B42  1.4+  0.4-    080208 945  0.5-  0.1-
071120 G96  0.6-  0.3+    080105 585  0.6+  0.8-    080208 130  0.5-  0.3+
071120 G96  0.5-  0.4+    080105 585  1.0-  0.3+    080208 130  0.9+  0.4-
071121 H06  0.3-  0.0     080105 B42  0.8+  0.1-    080208 130  0.2-  0.0
071121 G96  0.3-  0.1-    080105 900  1.2-  0.1+    080208 130  0.3+  0.1-
071121 G96  0.3-  0.2+    080105 900  0.5+  0.2-    080208 349  0.1-  0.0
071121 G96  0.3-  0.2+    080108 071  0.3+  0.3+    080208 349  0.0   0.2+
071121 G96  0.5-  0.1+    080108 945  1.4+  0.5-    080208 349  0.2-  0.1+
071121 G96  0.7-  0.7+    080108 071  0.5+  0.0     080209 J38  1.0-  0.7-
071121 H06  0.2-  0.1-    080108 945  1.3+  0.3-    080209 415  0.6+  0.5-
071121 G96  0.1+  0.3+    080108 945  0.1+  0.1-    080209 415  0.7+  0.2-
071121 G96  0.4-  0.2+    080108 945  0.2-  0.3+    080210 945  0.1-  0.1-
071121 G96  0.5-  0.4+    080108 945  1.1+  0.1-    080210 945  0.8+  0.1-
071121 G96  0.2-  0.1-    080109 B30  0.7+  0.3+    080210 945  0.1-  0.0
071121 G96  0.4-  0.2-    080109 B30  0.9-  0.5+    080210 945  0.6+  0.4+
071121 G96  0.2-  0.3-    080110 423  0.3-  0.0     080210 945  0.5-  0.3+
071121 G96  0.2-  0.2-    080110 423  0.4-  0.2-    080210 A81  0.2+  0.0
071123 809  0.4+  0.3-    080111 215  0.4-  0.2-    080210 213  0.0   0.3+
071123 809  0.5+  0.2-    080111 215  0.5-  0.2-    080210 213  0.7-  0.7+
071123 809  0.4+  0.3-    080111 215  0.4-  0.1-    080210 A81  0.6-  0.0
071123 809  0.5+  0.3-    080111 423  0.4-  0.1-    080210 213  0.4+  0.6+
071123 809  0.3+  0.1-    080111 423  0.8-  0.1+    080210 704 (1.0-  5.0+)
071123 809  0.3+  0.1-    080112 071  0.4+  0.0     080210 704  0.7+  0.6+
071123 809  0.4+  0.2-    080112 071  0.2+  0.1-    080210 704  1.8+  1.9+
071123 809  0.4+  0.2-    080112 071  0.4+  0.2-    080210 704  1.3+  0.4+
071123 809  0.5+  0.4-    080112 071  0.3+  0.0     080210 704 (0.4-  2.7-)
071123 809  0.4+  0.1-    080112 071  0.3+  0.1-    080210 349  0.1+  0.3-
071124 349  0.4-  0.2-    080113 939  0.5-  0.6+    080210 349  0.1-  0.5-
071124 349  0.5-  0.2-    080113 939  0.6-  0.2+    080211 945  0.3+  0.3+
071127 213  0.1-  0.8+    080113 939  0.6-  0.4-    080211 945  0.3+  0.2+
071127 213  0.2+  0.5+    080113 071  0.1+  0.0     080211 945  0.3-  0.1-
071127 213  0.6+  0.4-    080113 071  0.0   0.1-    080211 945  0.5+  0.6-
071130 585  0.2+  0.1+    080113 071  0.1+  0.2-    080211 945  0.2+  0.1-
071130 585  0.6+  0.7-    080113 071  0.2+  0.1+    080212 945  0.7+  0.4-
071130 585 (2.6-  0.1+)   080113 071  0.0   0.2+    080212 945  0.5+  0.8-
071130 585  0.4-  0.3-    080113 349  0.7-  0.1+    080212 945  0.6-  0.2-
071130 850  0.6+  0.0     080113 349  0.3-  0.1-    080212 945  0.0   0.1+
071130 850  0.4-  0.2+    080114 349  0.6-  0.4+    080212 945  0.0   0.1-
071130 850  0.1-  0.1-    080114 349  0.5-  0.2+    080213 945  1.3+  0.2-
071130 850  0.3-  0.2-    080114 349  0.6-  0.2+    080213 945  1.4+  0.3-
071130 349  0.1+  0.6-    080115 423  0.8-  0.1+    080213 945  0.6+  0.0
071130 349  0.4+  0.4-    080115 423  0.5-  0.1+    080213 945  1.9+  0.7-
071130 349  0.2+  0.6-    080119 232  0.4-  0.3-    080213 048  1.3-  0.5+
071205 561  0.3-  0.3-    080119 232  1.3-  1.4+    080213 048  1.1-  0.7+
071205 561  1.3+  0.3+    080119 232  1.7-  0.8-    080213 048  0.4-  1.1+
071205 561  0.4-  1.2+    080120 J51  0.2-  0.2+    080213 048  0.0   1.2+
071207 213  0.2+  0.2-    080120 J51  0.2-  0.1-    080213 048  0.1+  0.6+
071207 213  0.1+  0.1-    080120 J51  0.3-  0.6-    080213 204  0.1+  0.4-
071207 213  0.0   0.2+    080120 G96  1.5-  0.2+    080213 204  0.4-  0.0
071214 423  0.5+  0.4+    080120 G96 (2.3-  0.4+)   080213 945  0.8+  1.2-
071214 423  0.6-  0.2+    080120 G96  1.9-  0.7+    080213 945  1.4+  0.0
071216 703  0.5+  1.0+    080120 G96 (2.2-  0.7+)   080214 945 (3.7-  0.2+)
071216 703  0.1+  0.8+    080121 945 (2.2+  1.0-)   080214 945  0.9-  0.2-
071216 703  0.5+  1.4+    080121 945 (2.6-  0.1+)   080215 945  0.0   0.5+
071216 703  0.7-  0.5+    080121 945  0.9+  0.2-    080215 945  0.2+  0.7+
071217 461  0.3+  0.0     080121 945  0.7+  0.4-    080215 945  0.1-  0.3+
071217 461  0.2+  0.4-    080121 945  0.1+  1.9+    080215 945  1.5-  0.5+
071217 461  0.3+  0.4-    080125 349  0.6-  0.1+    080215 945  0.7+  0.5+
071217 461  0.4+  0.3+    080125 349  0.6-  0.0     080215 442  0.2-  0.1+
071219 204  0.0   0.3-    080125 349  0.7-  0.1-    080216 213  0.5-  0.1+
071219 204  0.1-  0.2-    080201 467  0.2+  0.8-    080216 213  0.2-  0.1+
071219 H45  0.4+  0.3-    080201 467  0.1+  0.5-    080216 232  0.3-  0.7-
071219 H45  0.1+  0.2-    080201 467  0.1+  0.4-    080216 232  0.6-  0.4-
071219 H45  0.1-  0.3-    080202 704 (2.2-  4.1+)   080216 232  0.0   0.4+
071219 H45  0.0   0.2-    080202 704 (3.2+  2.0+)   080216 213  0.3+  1.1-
071219 H45  0.1-  0.3-    080202 704 (2.4+  2.3+)   080218 J51  0.9-  0.8+
071219 H45  0.5+  0.3-    080202 704 (2.4+  1.8+)   080218 J51  0.6-  0.2+
071227 H06  0.8+  0.5-    080202 704 (1.4+  2.5-)   080218 J51  1.0-  0.4+
071227 H06  0.3+  0.2-    080203 J52  0.4-  0.3-    080219 703 (2.3-  0.8+)
071228 213  0.0   0.4+    080203 J52  0.8-  0.1-    080219 703 (2.3-  0.3+)
071228 213  0.0   0.3+    080204 585  0.9-  0.8+    080219 703 (2.8-  0.6+)
071228 213  0.0   0.2+    080204 585  0.5-  0.1-    080219 349  0.8-  0.4-
071228 423  0.5-  0.4+    080204 585  1.4-  0.3-    080219 349  1.0-  0.2-
071228 423  0.0   0.2+    080204 585  1.2-  0.5+    080219 349  0.6-  0.0
071229 415  1.5+  0.1-    080204 585  0.9-  0.1-    080221 945  1.1+  0.8-
071229 415  0.9+  0.4+    080204 585  0.0   0.7-    080221 945  0.3+  0.5-
071229 415  0.5+  0.2+    080204 585  1.0-  1.7+    080221 945  0.2+  0.0
071229 415  0.2+  1.1-    080205 467  0.1+  0.8-    080221 945  1.5+  1.0-
080102 595  0.1+  0.3+    080205 467  0.2+  0.3-    080221 945  0.6+  0.4+
080102 595  0.1+  0.2+    080205 467  0.1+  0.5-    080226 467  0.2-  0.3-
080102 349  0.0   0.2-    080206 945  0.8-  0.4+    080226 467  0.3+  0.4-
080102 349  0.2+  0.2-    080206 945  1.0+  0.7-    080226 467  0.3+  0.4-
080102 349  0.2+  0.1-    080206 945  1.0-  1.7+    080228 703  0.1-  0.2-
080102 355  0.1-  0.4-    080206 945  0.0   0.5-    080228 703  0.3-  0.6-
080102 355  0.5-  0.1+    080206 945  0.1+  0.3+    080228 703  0.2-  0.5-
080102 355  0.1-  0.9-    080207 945  0.3-  0.0     080228 703  0.1-  0.2-
080102 355  1.1-  0.5-    080207 945  0.1-  0.8+    080229 691 (4.9-  2.7+)
080103 585 (2.3-  0.6-)   080207 945  0.4+  1.2+    080229 691 (4.7-  3.2+)
080103 585  0.4+  1.0+    080207 945  0.5+  0.1-    080229 691 (2.9-  1.5+)
080103 585  1.0+  0.1+    080207 945  1.0+  0.2+    080301 J51  0.3-  0.7+
080103 585 (2.1+  1.2+)   080207 467  0.3+  0.3-    080301 J51  0.3+  0.4+
080105 585  0.6+  0.4-    080207 467  0.3+  0.5-    080301 J51  0.3-  0.7+

     The "original" and "future" barycentric values of 1/a are -0.000002
and +0.000631 (+/- 0.000012) AU^-1, respectively.

Brian G. Marsden             (C) Copyright 2008 MPC           M.P.E.C. 2008-E10

Read MPEC 2008-E09 Read MPEC 2008-E11


Our Web policy. Index to the CBAT/MPC/ICQ pages.


Valid HTML 4.01!